Temp
22 21 20 19 19 19 18 19 19 19 19 19 18 18 18 18 18 18 18 18 18 18 18 17 18 18 18 18 18 18 18 18 18 18 18 18 18 18 18 18 18 20 18
22 21 20 20 19 18 19 19 19 19 18 18 18 18 17 17 17 17 17 17 18 18 17 17 17 17 18 18 18 17 17 17 17 18 18 19 18 18 18 18 18 19 18
22 21 20 19 19 18 19 19 18 18 18 18 18 17 18 18 17 17 18 18 17 18 17 17 17 18 18 18 18 17 17 17 17 18 18 19 19 18 18 18 18 18 17
22 21 20 19 18 19 19 18 18 18 17 16 16 16 16 16 15 15 15 15 15 15 15 15 15 15 15 15 16 17 18 18 18 18 19 19 19 18 18 18 18 18 18
22 21 19 19 18 19 18 18 17 16 17 16 16 15 15 15 15 15 15 15 15 15 15 15 15 15 15 15 15 15 17 18 18 18 18 18 18 19 18 18 18 18 18
21 20 19 19 19 19 18 17 17 17 17 16 15 15 15 15 15 14 14 14 14 15 15 15 15 15 15 15 15 16 17 17 17 18 18 18 18 18 18 17 18 18 18
21 20 19 19 19 18 17 16 17 17 15 15 15 15 15 15 14 14 14 14 14 14 14 14 14 14 14 14 15 16 16 16 18 18 18 18 18 17 17 17 17 17 17
20 20 18 18 19 18 16 17 16 15 15 15 15 14 14 14 14 14 14 14 14 14 14 14 14 14 14 14 15 15 16 16 18 18 19 18 17 17 16 16 16 16 16
20 19 18 17 18 17 17 17 15 15 15 14 14 14 14 14 14 13 13 13 13 13 13 13 13 14 14 14 15 15 15 16 18 18 18 17 16 16 16 16 16 16 16
18 18 18 17 17 17 16 16 15 15 15 16 16 16 16 15 15 15 13 15 14 13 13 13 14 14 14 14 14 15 15 16 17 17 17 15 15 16 15 15 15 15 15
17 17 17 17 17 17 16 15 16 15 16 16 15 15 15 14 14 14 15 15 15 15 14 14 14 14 14 14 14 14 15 16 16 16 15 14 15 15 15 15 15 15 15
15 16 16 16 16 16 15 15 15 15 15 15 15 15 15 14 14 14 14 15 15 15 14 14 14 14 14 15 14 15 15 15 15 15 14 13 14 15 14 14 14 14 14
16 16 15 16 16 16 15 15 15 15 15 14 14 14 14 14 14 14 13 13 13 13 14 14 14 14 14 15 15 15 15 15 15 14 12 12 13 14 14 13 13 13 13
15 15 15 15 15 15 15 15 15 15 15 15 14 14 14 14 14 14 14 13 13 14 14 14 14 14 14 14 14 14 14 14 14 14 12 12 12 12 13 13 12 13 13
15 15 15 14 15 15 15 14 14 14 15 14 14 14 14 14 14 14 14 13 13 13 14 14 14 14 14 14 14 14 14 13 13 13 12 12 12 11 11 11 12 12 12
14 15 15 15 14 14 14 14 14 14 14 14 13 13 14 13 13 13 13 13 13 13 13 14 14 14 14 14 13 13 13 13 13 12 12 11 11 10 10 10 10 10 11
15 15 15 15 14 14 14 14 14 14 13 13 13 14 13 13 13 13 13 13 13 12 13 13 13 14 13 13 13 13 13 13 12 12 12 12 11 11 10 9 9 10 10
15 15 15 15 14 14 14 13 14 13 13 13 13 13 14 14 13 13 13 12 12 12 12 13 13 14 14 13 14 13 13 12 12 12 11 11 11 11 10 11 10 9 9
15 14 14 15 14 14 13 13 13 13 13 13 13 13 13 14 13 12 12 12 12 12 12 12 13 13 14 13 13 13 12 12 12 11 12 11 10 10 10 10 10 10 10
13 14 14 14 14 14 13 12 13 13 13 13 13 13 13 12 12 12 12 12 12 12 12 12 13 12 12 12 12 13 12 12 12 12 12 11 10 9 9 9 9 9 10
12 13 14 13 13 13 13 13 13 14 13 13 12 12 12 12 12 12 12 11 12 12 12 12 12 12 12 11 13 13 12 12 12 12 11 11 10 9 9 9 9 9 8
12 13 13 13 13 14 14 14 14 14 13 13 12 12 12 12 12 11 11 11 12 11 11 11 11 12 12 11 13 13 16 14 12 12 11 11 11 10 9 9 8 8 8
11 13 13 12 13 13 13 13 13 13 12 12 12 12 12 12 12 11 12 11 11 11 11 11 11 11 12 11 10 12 15 16 14 12 11 11 11 10 10 9 8 8 8
11 11 12 12 12 12 13 13 13 14 14 14 13 12 12 12 12 12 12 12 11 11 11 10 10 10 10 12 10 10 10 11 14 14 12 11 10 10 10 10 9 8 7
11 11 11 11 12 12 13 13 13 14 14 13 12 12 12 12 11 12 12 12 11 10 10 10 9 9 9 10 11 11 10 10 10 11 13 13 11 11 10 9 9 9 7
12 10 11 12 13 12 12 12 13 13 12 12 12 12 12 11 10 11 12 12 11 10 10 9 9 9 9 9 9 10 10 11 12 11 12 12 12 11 9 9 9 8 8
Height
807 811 815 819 822 825 827 829 830 830 831 831 831 832 832 832 832 832 832 831 831 831 830 829 828 828 828 827 826 826 825 824 824 823 823 822 822 821 821 820 820 820 818
805 811 815 818 822 825 827 829 830 831 831 832 832 833 833 833 833 832 832 832 831 830 830 829 828 827 827 826 826 825 825 824 823 823 823 823 822 822 821 821 820 820 819
806 812 817 819 822 825 827 829 830 831 831 832 833 833 833 834 833 833 832 832 831 830 829 828 828 827 826 826 825 824 824 823 823 822 823 824 824 822 821 821 820 820 820
807 813 817 820 823 825 828 829 831 831 832 833 833 834 834 834 834 834 834 832 832 831 830 829 828 827 826 825 824 823 822 822 822 822 823 823 823 822 821 820 820 820 820
809 813 816 820 824 826 828 830 831 832 833 833 834 834 835 835 835 835 835 834 833 832 832 830 829 828 827 826 824 823 822 821 821 821 822 822 821 821 820 820 820 819 819
810 814 817 821 824 827 829 831 832 833 833 834 835 835 835 836 836 836 836 835 835 833 833 831 830 829 828 827 825 824 822 821 821 821 821 821 821 820 820 819 818 818 818
810 814 818 821 824 827 830 832 832 833 834 835 836 836 836 836 836 837 837 836 835 834 833 832 830 829 828 827 826 824 824 823 823 822 822 822 822 821 820 819 818 818 818
809 814 818 821 823 828 830 832 833 834 835 836 837 837 837 837 837 837 837 836 836 835 833 833 831 830 829 828 827 826 825 824 825 824 823 824 823 822 821 820 820 819 819
811 814 818 822 823 827 830 832 834 835 836 836 837 836 837 837 837 837 837 836 836 835 834 833 833 831 830 829 829 828 827 826 826 826 825 825 824 824 822 821 821 820 819
812 815 819 822 824 828 831 832 833 835 835 836 837 837 838 838 838 837 837 836 835 835 834 834 833 832 831 831 830 830 829 828 828 828 828 828 827 826 825 823 823 822 821
812 816 819 823 826 828 831 832 833 835 836 838 838 838 839 839 839 839 837 837 836 835 834 834 834 833 833 833 832 832 831 831 830 830 830 829 828 827 826 826 824 824 823
811 815 820 823 826 828 831 832 835 835 838 839 840 840 841 840 839 839 839 838 838 836 835 835 835 835 835 835 834 833 834 833 832 832 831 831 831 829 828 827 826 826 824
810 816 820 824 826 827 831 833 835 836 838 839 840 841 840 841 841 842 841 841 840 838 838 837 837 837 836 837 836 836 836 836 835 834 833 832 832 831 830 829 828 827 826
811 816 819 824 827 827 829 832 834 836 837 839 839 840 841 842 842 843 842 841 840 840 839 838 839 839 838 838 838 837 838 837 837 836 835 833 833 833 832 830 830 829 828
810 815 820 824 827 828 829 832 834 836 837 838 839 839 841 842 843 843 843 842 841 841 840 840 840 840 840 841 840 840 840 839 838 837 837 834 833 833 833 831 831 830 828
810 814 820 823 827 829 829 831 834 835 837 838 839 840 840 842 843 843 843 843 842 841 841 841 841 841 841 842 841 841 841 840 839 839 838 836 835 834 834 833 832 830 830
808 813 818 822 826 828 830 832 832 834 837 838 838 839 840 842 844 843 844 844 843 842 841 841 841 841 842 843 843 842 842 842 841 840 839 839 838 835 835 833 832 831 831
806 812 817 820 824 827 830 832 832 834 836 838 839 839 840 842 843 844 844 843 843 843 842 843 842 842 842 842 843 843 842 842 841 841 840 839 838 838 836 833 832 830 830
805 811 816 820 823 826 829 832 833 834 836 838 839 839 840 842 843 844 843 843 843 843 843 843 843 843 843 843 842 842 842 841 841 840 840 839 838 838 837 834 833 832 831
807 811 816 820 823 825 829 831 833 834 837 837 839 840 840 841 843 844 843 842 842 843 844 844 843 842 842 841 840 840 840 840 840 839 839 839 838 837 836 835 835 833 832
810 811 815 819 822 823 826 830 832 833 836 837 838 840 840 841 842 844 843 843 842 844 844 843 843 842 842 840 840 840 840 840 839 839 838 838 837 837 836 835 834 833 833
809 810 815 819 822 823 825 827 830 832 835 836 836 839 840 840 840 842 842 842 842 842 843 843 843 842 841 840 841 840 836 838 837 836 836 836 836 835 835 833 833 832 831
806 809 812 817 820 822 824 825 827 829 832 833 835 837 837 837 839 841 840 841 841 841 842 842 842 842 842 841 841 841 835 831 834 833 834 834 834 834 833 833 831 830 829
800 806 812 816 818 819 821 823 825 826 829 830 832 835 835 835 835 841 838 840 840 840 840 840 841 841 841 841 840 839 839 838 834 831 832 832 832 832 831 830 829 828 826
797 802 809 813 814 818 819 821 825 825 826 827 830 832 834 834 835 839 837 838 839 839 838 838 838 839 840 840 840 839 838 838 837 836 830 828 830 828 828 827 826 826 824
790 802 804 811 810 814 818 819 821 824 824 825 826 830 831 832 835 837 836 835 836 836 836 836 836 837 838 838 838 837 837 835 833 834 830 828 827 826 825 824 823 822 821
Wind_Speed
20 23 23 21 19 16 16 14 14 12 11 10 11 10 11 12 11 10 9 8 7 6 5 7 6 5 5 6 8 9 4 4 5 5 5 4 4 5 4 6 8 5 6
26 24 23 22 20 18 16 14 13 14 15 13 12 12 10 8 7 5 5 4 4 5 5 5 5 5 4 2 3 4 5 4 2 3 4 5 6 5 6 5 5 4 5
28 24 21 21 19 18 16 15 16 12 11 10 8 7 6 6 6 5 5 5 6 6 6 6 6 6 5 5 4 3 3 4 4 4 4 3 3 5 7 5 4 5 5
26 23 21 23 19 18 16 15 12 13 13 11 11 10 10 9 9 9 10 10 10 10 10 10 10 10 10 8 7 5 6 6 5 4 3 3 3 6 6 7 4 4 4
24 23 23 21 19 18 17 14 13 12 11 10 10 10 11 11 11 11 11 11 11 11 10 11 10 10 11 10 9 8 7 6 6 4 4 4 4 6 7 7 7 6 5
24 22 23 20 20 18 15 14 13 10 10 10 11 12 12 12 12 11 11 10 10 11 10 10 10 10 10 10 10 9 10 10 11 5 3 4 4 6 9 7 6 1 4
24 22 21 22 21 16 15 13 11 11 12 13 13 13 13 12 12 11 11 11 10 10 11 10 10 10 10 10 10 10 11 14 11 10 8 6 5 7 8 8 8 6 6
24 22 21 23 19 17 14 12 12 14 14 14 13 13 13 13 12 12 11 11 11 10 11 10 10 10 10 10 10 10 10 12 11 12 12 11 11 11 11 11 11 11 10
23 22 22 20 20 16 13 12 14 14 14 14 13 12 12 12 12 12 11 11 10 10 10 10 9 9 10 10 10 11 11 13 11 12 11 13 12 12 10 11 10 9 10
21 20 20 18 18 15 14 16 16 14 13 11 10 10 10 11 11 10 11 9 9 9 9 8 8 8 9 9 10 10 11 12 10 9 9 12 13 14 14 14 13 12 11
19 18 19 18 17 16 15 15 15 13 11 10 10 10 9 9 9 9 9 9 8 9 9 9 8 8 9 9 10 10 11 10 9 9 8 9 12 10 12 11 12 11 12
23 21 18 17 17 17 14 14 12 13 9 8 8 8 8 8 8 9 9 10 9 9 10 10 9 9 9 6 7 10 9 9 10 11 11 13 11 10 11 13 12 11 11
23 23 19 16 16 16 14 13 11 10 10 9 8 7 8 7 7 6 6 6 7 9 7 8 8 7 8 7 7 8 8 9 9 10 11 12 13 13 12 13 13 14 13
28 23 20 16 15 14 15 11 11 10 10 9 8 8 7 6 6 5 6 7 7 6 8 8 7 7 7 7 7 8 8 8 8 9 10 9 12 12 12 12 13 12 12
26 24 21 17 15 15 15 12 11 10 9 10 9 8 7 7 6 5 6 7 7 7 7 8 6 7 8 6 7 7 7 7 8 8 8 8 9 12 12 12 10 12 12
24 25 23 19 14 14 13 13 12 10 10 9 9 9 8 6 6 6 6 6 6 6 7 7 6 6 7 5 6 5 5 5 7 7 7 9 10 12 12 11 12 12 11
27 26 25 22 16 14 13 12 12 12 10 9 10 9 8 7 5 6 5 5 5 6 6 5 6 6 5 3 3 3 3 3 4 5 6 6 7 10 10 10 11 10 10
30 28 25 23 18 15 13 11 11 12 10 9 9 9 8 7 6 5 5 5 4 4 4 5 5 5 4 1 1 1 2 2 2 2 4 4 5 4 7 9 9 9 9
31 27 23 23 18 15 14 11 11 11 10 9 8 8 8 7 6 4 4 5 4 4 4 4 3 3 3 2 1 3 3 3 3 2 2 2 2 2 3 6 8 8 8
25 26 22 20 17 16 13 11 10 9 8 8 8 7 8 7 5 4 4 4 4 3 3 2 2 2 2 3 1 3 5 6 5 5 4 3 3 1 0 2 4 5 7
20 24 22 19 17 17 14 13 10 10 9 8 7 8 7 7 5 4 3 3 3 2 1 2 0 1 1 3 2 3 5 7 7 6 6 6 6 4 3 2 2 3 4
22 23 21 16 16 15 14 12 9 10 8 8 8 8 7 6 6 4 3 3 2 2 0 1 1 1 2 4 3 4 2 4 6 7 7 8 7 7 6 5 5 5 5
24 24 24 19 16 15 13 13 11 11 8 8 9 9 9 8 6 5 4 3 3 2 2 2 2 2 3 2 2 4 2 2 4 4 5 6 6 7 7 8 7 7 7
24 22 21 19 17 17 17 14 13 12 10 9 10 9 9 9 7 8 6 4 4 4 3 3 4 3 3 5 4 4 3 4 3 3 3 4 6 8 8 8 9 10 9
20 22 21 25 19 15 19 14 12 11 9 9 9 9 8 7 7 8 5 4 4 5 5 5 5 6 6 6 5 4 4 5 6 5 7 5 7 9 10 10 11 10 11
16 23 25 26 24 17 18 17 16 12 11 11 10 10 9 7 7 7 6 5 5 5 5 5 5 7 7 7 7 7 7 6 6 8 7 11 12 13 9 12 11 10 10
Wind_Direction
163 162 164 160 154 149 139 134 128 124 122 122 118 108 100 98 98 94 91 87 79 85 66 56 58 54 53 48 51 45 39 29 26 32 36 54 50 46 25 16 44 38 44
155 159 164 159 152 145 142 140 131 124 113 104 102 92 87 86 86 86 72 63 46 40 37 31 25 12 354 1 37 30 20 34 29 358 27 24 15 39 13 2 31 28 36
151 156 157 157 150 145 146 139 133 130 131 123 130 113 106 91 76 61 54 44 39 37 33 31 20 7 356 345 337 336 319 316 357 5 26 16 9 359 8 3 1 22 21
149 152 155 151 144 146 147 141 142 116 106 109 102 91 83 76 72 66 61 63 60 56 54 50 45 40 35 32 16 344 320 317 309 316 349 341 348 329 1 15 332 329 345
150 153 152 152 147 146 144 149 131 121 116 108 100 93 88 80 77 75 68 64 64 59 54 55 50 45 43 42 39 29 10 356 337 338 309 320 343 323 346 344 337 296 318
152 150 153 150 148 154 155 139 127 122 118 111 101 94 92 87 81 73 67 66 57 58 56 50 49 50 45 44 44 42 42 39 40 9 345 323 338 337 357 355 357 343 316
151 150 149 152 153 155 145 135 131 125 116 112 105 100 94 89 83 75 71 65 62 55 53 48 51 49 45 41 46 54 56 55 51 46 49 45 30 43 38 40 47 40 29
149 149 149 155 154 154 143 139 129 122 118 114 108 103 96 89 84 77 70 64 59 56 56 51 51 54 48 46 52 60 65 68 54 56 60 58 64 59 54 55 57 58 50
151 148 145 144 155 152 149 140 129 124 119 117 114 106 99 96 87 81 75 68 63 55 56 55 55 59 58 61 65 70 73 74 66 64 60 50 52 50 48 51 49 51 53
146 143 146 144 141 139 136 142 141 139 129 122 118 111 103 92 84 79 69 69 67 61 57 63 63 65 67 74 77 75 74 62 65 66 57 41 46 48 45 46 50 53 49
141 147 148 148 146 141 138 143 143 141 136 122 118 113 96 95 86 77 78 74 69 68 66 66 68 70 78 76 79 74 65 62 63 60 44 29 32 33 33 35 45 48 50
152 152 151 151 150 143 143 139 138 134 135 131 126 117 104 98 96 90 83 78 71 71 68 66 70 74 71 73 68 62 65 65 65 59 41 45 43 57 57 55 53 52 51
157 163 156 155 155 148 147 144 144 138 137 130 125 118 111 101 96 94 83 76 70 64 62 61 55 62 67 72 74 71 68 61 65 56 47 54 50 52 52 53 47 48 45
163 164 162 159 158 150 150 148 147 143 141 139 132 122 114 104 97 95 91 82 73 63 61 60 61 62 65 76 81 81 70 68 59 58 48 69 55 46 43 41 36 34 32
163 167 166 161 161 158 153 149 141 146 140 141 134 128 121 114 113 106 94 87 83 71 69 61 64 64 69 74 84 85 73 66 57 64 53 58 57 48 40 34 28 25 21
169 168 169 166 164 163 155 153 148 141 143 141 133 134 127 122 122 116 102 92 81 79 73 69 65 65 65 73 87 84 72 67 59 63 70 57 61 60 51 46 40 39 32
172 171 171 171 166 161 157 157 149 147 147 144 139 137 130 126 127 121 115 99 85 80 78 80 68 65 70 75 88 89 91 78 68 74 74 76 54 54 56 50 47 45 40
172 174 174 174 169 162 163 160 151 150 151 150 144 140 136 134 134 131 121 109 96 85 79 72 72 67 65 105 148 163 146 134 111 101 90 82 71 60 33 43 44 47 45
176 174 174 174 167 164 161 160 154 156 155 157 152 146 145 146 147 142 132 120 101 81 69 70 63 74 44 33 213 217 219 214 203 185 164 118 97 75 54 28 28 29 33
178 177 175 170 168 162 159 156 156 157 164 163 164 164 160 158 159 156 141 121 102 87 76 64 69 58 42 357 248 239 242 235 228 223 220 210 214 219 36 16 18 8 11
180 174 177 173 173 164 164 162 166 172 177 174 178 177 174 167 170 173 147 124 104 105 83 57 58 41 358 3 320 270 256 237 238 237 235 239 242 240 245 278 311 342 337
187 180 181 180 183 174 172 173 174 172 185 184 183 191 186 178 183 182 166 158 147 132 46 324 322 296 349 12 331 295 256 213 236 233 243 247 247 244 252 259 273 289 308
188 185 188 184 187 183 177 176 169 169 173 179 189 197 193 186 196 205 194 201 228 230 239 259 301 335 313 284 281 290 262 282 306 222 230 240 239 250 260 259 264 270 279
183 193 200 200 196 190 188 184 181 183 182 193 188 192 191 194 195 222 215 236 248 260 265 272 279 265 259 268 266 242 267 297 305 296 234 249 256 266 260 263 265 263 262
183 194 203 212 205 200 198 195 200 197 185 170 174 175 181 189 197 221 219 231 260 272 272 262 255 251 253 265 264 266 264 264 257 260 284 273 279 268 271 271 270 264 260
181 203 205 213 205 203 208 205 207 206 190 176 174 180 182 182 205 219 220 229 256 265 267 264 263 258 257 257 256 253 254 262 262 254 268 284 293 293 275 279 268 260 252